Regional Weather Roundup
Issued by NWS Albany, NY

Home | Current Version | Previous Version | Text Only | Print | Product List | Glossary On
Versions: 1 2 3 4 5 6 7 8 9 10 11 12 13 14 15 16 17 18 19 20 21 22 23 24 25 26 27 28 29 30 31 32 33 34 35 36 37 38 39 40 41 42 43 44 45 46 47 48 49 50
000
ASUS41 KALY 261810
RWRALY

NEW YORK STATE HOURLY WEATHER ROUNDUP
NATIONAL WEATHER SERVICE ALBANY NY
200 PM EDT THU APR 26 2018

NOTE: "FAIR" INDICATES FEW OR NO CLOUDS BELOW 12,000 FEET WITH NO
SIGNIFICANT WEATHER AND/OR NO OBSTRUCTIONS TO VISIBILITY.

NYZ032-033-038>043-046>054-057>066-NYZ062>081-082-084-261900-
EAST


CITY           SKY/WX    TMP DP  RH WIND       PRES   REMARKS
ALBANY         PTSUNNY   52  40  63 NW12      29.75R
GLENS FALLS    CLOUDY    52  39  61 W14G24    29.68R
POUGHKEEPSIE   FAIR      61  40  45 W14       29.72R
NEWBURGH       PTSUNNY   61  45  55 NW15G24   29.74S
MONTGOMERY     PTSUNNY   60  41  49 W13G23    29.73R
WHITE PLAINS   FAIR      63  40  42 NW16      29.73R
ISLIP          FAIR      66  42  41 NW17      29.72R
NEW YORK CITY  FAIR      65  39  38 W17G33    29.73S
CENTRAL PARK   FAIR      65  39  38 W10G21    29.76F
$$

NYZ005>009-017-018-044>046-055-056-261900-
CENTRAL


CITY           SKY/WX    TMP DP  RH WIND       PRES   REMARKS
FULTON         LGT RAIN  43  38  82 W15G23    29.82R
SYRACUSE       LGT RAIN  45  44  97 W10       29.81R FOG
ROME           LGT RAIN  44  43  96 NW15      29.80R FOG
ELMIRA         PTSUNNY   58  42  55 NW13      29.81F
BINGHAMTON     CLOUDY    50  39  66 W7        29.78S
$$

NYZ026>034-041>043-087-261900-
NORTH


CITY           SKY/WX    TMP DP  RH WIND       PRES   REMARKS
WATERTOWN      LGT RAIN  41  41 100 SW12      29.76R FOG
FORT DRUM      NOT AVBL
OGDENSBURG     DRIZZLE   47  45  92 W7        29.70R
MASSENA        CLOUDY    49  46  90 SW15      29.68R
SARANAC LAKE   CLOUDY    42  39  89 SW12      29.66R
PLATTSBURGH    CLOUDY    54  42  64 SW12G18   29.62R
$$

NYZ001>004-010>016-019>021-085-261900-
WEST


CITY           SKY/WX    TMP DP  RH WIND       PRES   REMARKS
NIAGARA FALLS  FAIR      54  40  59 SW20      29.86S
BUFFALO        FAIR      47  36  65 SW15G25   29.88S
DUNKIRK        FAIR      49  35  58 W16G24    29.92S
JAMESTOWN      FAIR      48  32  53 NW13      29.89S
WELLSVILLE     FAIR      55  35  47 W13G22    29.85R
ROCHESTER      PTSUNNY   53  40  61 W18G25    29.84R
PENN YAN       FAIR      54  39  57 W16G22    29.82S
$$

             KEY
       WCI = WIND CHILL INDEX
       VSB = VISIBILITY
       HX  = HEAT INDEX
$$



USA.gov is the U.S. government's official web portal to all federal, state and local government web resources and services.